Location: Lane
(33.5226°N, 79.8788°W)
Time: 21:49:12
(UTC+00:00)

Vanguard 2 Rocket - Pass Details

Date: 07 October 2022
Orbit: 555 x 3321 km, 32.9° (Epoch: 28 November)

Event Time Altitude Azimuth Distance (km) Brightness Sun altitude
Rises 01:50:41 0° 235° (SW) 7,300 11.9 -36.5°
Reaches altitude 10° 01:55:48 10° 232° (SW) 6,243 11.4 -37.5°
Enters shadow 02:13:52 62° 172° (S) 2,953 9.1 -40.9°
